Time,TemperatureF,DewpointF,PressureIn,WindDirection,WindDirectionDegrees,WindSpeedMPH,WindSpeedGustMPH,Humidity,HourlyPrecipIn,Conditions,Clouds,dailyrainin,SoftwareType,DateUTC
2014-01-27 00:02:00,-5.0,-16.0,-100.00,WNW,285,9.0,19.0,59,-99.99,,,-99.99,,2014-01-27 06:02:00,
2014-01-27 00:42:00,-9.0,-20.0,-100.00,WNW,295,12.0,23.0,57,-99.99,,,-99.99,,2014-01-27 06:42:00,
2014-01-27 00:52:00,-9.0,-20.0,-100.00,WNW,295,12.0,23.0,57,-99.99,,,-99.99,,2014-01-27 06:52:00,
2014-01-27 01:02:00,-9.0,-20.0,-100.00,WNW,295,12.0,23.0,57,-99.99,,,-99.99,,2014-01-27 07:02:00,
2014-01-27 01:42:00,-10.0,-21.0,-100.00,West,270,9.0,17.0,57,-99.99,,,-99.99,,2014-01-27 07:42:00,
2014-01-27 01:52:00,-10.0,-21.0,-100.00,West,270,9.0,17.0,57,-99.99,,,-99.99,,2014-01-27 07:52:00,
2014-01-27 02:01:00,-10.0,-21.0,-100.00,West,270,9.0,17.0,57,-99.99,,,-99.99,,2014-01-27 08:01:00,
2014-01-27 02:10:00,-12.0,-23.0,-100.00,West,270,8.0,22.0,57,-99.99,,,-99.99,,2014-01-27 08:10:00,
2014-01-27 02:42:00,-12.0,-23.0,-100.00,West,270,8.0,22.0,57,-99.99,,,-99.99,,2014-01-27 08:42:00,
2014-01-27 02:52:00,-12.0,-23.0,-100.00,West,270,8.0,22.0,57,-99.99,,,-99.99,,2014-01-27 08:52:00,
2014-01-27 03:02:00,-12.0,-23.0,-100.00,West,270,8.0,22.0,57,-99.99,,,-99.99,,2014-01-27 09:02:00,
2014-01-27 03:43:00,-14.0,-25.0,-100.00,WNW,290,9.0,18.0,57,-99.99,,,-99.99,,2014-01-27 09:43:00,
2014-01-27 03:54:00,-14.0,-25.0,-100.00,WNW,290,9.0,18.0,57,-99.99,,,-99.99,,2014-01-27 09:54:00,
2014-01-27 04:03:00,-14.0,-25.0,-100.00,WNW,290,9.0,18.0,57,-99.99,,,-99.99,,2014-01-27 10:03:00,
2014-01-27 04:10:00,-15.0,-26.0,-100.00,West,280,11.0,19.0,58,-99.99,,,-99.99,,2014-01-27 10:10:00,
2014-01-27 04:43:00,-15.0,-26.0,-100.00,West,280,11.0,19.0,58,-99.99,,,-99.99,,2014-01-27 10:43:00,
2014-01-27 04:53:00,-15.0,-26.0,-100.00,West,280,11.0,19.0,58,-99.99,,,-99.99,,2014-01-27 10:53:00,
2014-01-27 05:02:00,-15.0,-26.0,-100.00,West,280,11.0,19.0,58,-99.99,,,-99.99,,2014-01-27 11:02:00,
2014-01-27 06:42:00,-17.0,-27.0,-100.00,West,275,6.0,12.0,58,-99.99,,,-99.99,,2014-01-27 12:42:00,
2014-01-27 06:52:00,-17.0,-27.0,-100.00,West,275,6.0,12.0,58,-99.99,,,-99.99,,2014-01-27 12:52:00,
2014-01-27 07:02:00,-17.0,-27.0,-100.00,West,275,6.0,12.0,58,-99.99,,,-99.99,,2014-01-27 13:02:00,
2014-01-27 08:42:00,-18.0,-28.0,-100.00,West,275,6.0,13.0,60,-99.99,,,-99.99,,2014-01-27 14:42:00,
2014-01-27 08:53:00,-18.0,-28.0,-100.00,West,275,6.0,13.0,60,-99.99,,,-99.99,,2014-01-27 14:53:00,
2014-01-27 09:02:00,-18.0,-28.0,-100.00,West,275,6.0,13.0,60,-99.99,,,-99.99,,2014-01-27 15:02:00,
2014-01-27 10:10:00,-15.0,-26.0,-100.00,WSW,255,11.0,17.0,56,-99.99,,,-99.99,,2014-01-27 16:10:00,
2014-01-27 10:43:00,-15.0,-26.0,-100.00,WSW,255,11.0,17.0,56,-99.99,,,-99.99,,2014-01-27 16:43:00,
2014-01-27 10:52:00,-15.0,-26.0,-100.00,WSW,255,11.0,17.0,56,-99.99,,,-99.99,,2014-01-27 16:52:00,
2014-01-27 11:02:00,-15.0,-26.0,-100.00,WSW,255,11.0,17.0,56,-99.99,,,-99.99,,2014-01-27 17:02:00,
2014-01-27 11:43:00,-14.0,-25.0,-100.00,West,260,11.0,19.0,54,-99.99,,,-99.99,,2014-01-27 17:43:00,
2014-01-27 11:52:00,-14.0,-25.0,-100.00,West,260,11.0,19.0,54,-99.99,,,-99.99,,2014-01-27 17:52:00,
2014-01-27 12:02:00,-14.0,-25.0,-100.00,West,260,11.0,19.0,54,-99.99,,,-99.99,,2014-01-27 18:02:00,
2014-01-27 12:10:00,-12.0,-24.0,-100.00,WSW,250,0.0,18.0,53,-99.99,,,-99.99,,2014-01-27 18:10:00,
2014-01-27 12:43:00,-12.0,-24.0,-100.00,WSW,250,0.0,18.0,53,-99.99,,,-99.99,,2014-01-27 18:43:00,
2014-01-27 12:52:00,-12.0,-24.0,-100.00,WSW,250,0.0,18.0,53,-99.99,,,-99.99,,2014-01-27 18:52:00,
2014-01-27 13:02:00,-12.0,-24.0,-100.00,WSW,250,0.0,18.0,53,-99.99,,,-99.99,,2014-01-27 19:02:00,
2014-01-27 14:10:00,-8.0,-22.0,-100.00,West,260,0.0,0.0,50,-99.99,,,-99.99,,2014-01-27 20:10:00,
2014-01-27 14:42:00,-8.0,-22.0,-100.00,West,260,0.0,0.0,50,-99.99,,,-99.99,,2014-01-27 20:42:00,
2014-01-27 14:52:00,-8.0,-22.0,-100.00,West,260,0.0,0.0,50,-99.99,,,-99.99,,2014-01-27 20:52:00,
2014-01-27 15:02:00,-8.0,-22.0,-100.00,West,260,0.0,0.0,50,-99.99,,,-99.99,,2014-01-27 21:02:00,
2014-01-27 15:10:00,-7.0,-21.0,-100.00,WSW,255,0.0,0.0,49,-99.99,,,-99.99,,2014-01-27 21:10:00,
2014-01-27 15:44:00,-7.0,-21.0,-100.00,WSW,255,0.0,0.0,49,-99.99,,,-99.99,,2014-01-27 21:44:00,
2014-01-27 15:53:00,-7.0,-21.0,-100.00,WSW,255,0.0,0.0,49,-99.99,,,-99.99,,2014-01-27 21:53:00,
2014-01-27 16:03:00,-7.0,-21.0,-100.00,WSW,255,0.0,0.0,49,-99.99,,,-99.99,,2014-01-27 22:03:00,
2014-01-27 16:10:00,-7.0,-22.0,-100.00,WSW,250,0.0,0.0,48,-99.99,,,-99.99,,2014-01-27 22:10:00,
2014-01-27 16:43:00,-7.0,-22.0,-100.00,WSW,250,0.0,0.0,48,-99.99,,,-99.99,,2014-01-27 22:43:00,
2014-01-27 16:53:00,-7.0,-22.0,-100.00,WSW,250,0.0,0.0,48,-99.99,,,-99.99,,2014-01-27 22:53:00,
2014-01-27 17:02:00,-7.0,-22.0,-100.00,WSW,250,0.0,0.0,48,-99.99,,,-99.99,,2014-01-27 23:02:00,
2014-01-27 18:10:00,-11.0,-23.0,-100.00,SW,230,0.0,0.0,54,-99.99,,,-99.99,,2014-01-28 00:10:00,
2014-01-27 18:42:00,-11.0,-23.0,-100.00,SW,230,0.0,0.0,54,-99.99,,,-99.99,,2014-01-28 00:42:00,
2014-01-27 18:52:00,-11.0,-23.0,-100.00,SW,230,0.0,0.0,54,-99.99,,,-99.99,,2014-01-28 00:52:00,
2014-01-27 19:01:00,-11.0,-23.0,-100.00,SW,230,0.0,0.0,54,-99.99,,,-99.99,,2014-01-28 01:01:00,
2014-01-27 19:42:00,-12.0,-23.0,-100.00,WSW,240,0.0,0.0,57,-99.99,,,-99.99,,2014-01-28 01:42:00,
2014-01-27 19:52:00,-12.0,-23.0,-100.00,WSW,240,0.0,0.0,57,-99.99,,,-99.99,,2014-01-28 01:52:00,
2014-01-27 20:02:00,-12.0,-23.0,-100.00,WSW,240,0.0,0.0,57,-99.99,,,-99.99,,2014-01-28 02:02:00,
2014-01-27 20:10:00,-13.0,-23.0,-100.00,WSW,250,0.0,0.0,59,-99.99,,,-99.99,,2014-01-28 02:10:00,
2014-01-27 20:42:00,-13.0,-23.0,-100.00,WSW,250,0.0,0.0,59,-99.99,,,-99.99,,2014-01-28 02:42:00,
2014-01-27 20:52:00,-13.0,-23.0,-100.00,WSW,250,0.0,0.0,59,-99.99,,,-99.99,,2014-01-28 02:52:00,
2014-01-27 21:02:00,-13.0,-23.0,-100.00,WSW,250,0.0,0.0,59,-99.99,,,-99.99,,2014-01-28 03:02:00,
2014-01-27 21:10:00,-14.0,-24.0,-100.00,WSW,240,6.0,9.0,61,-99.99,,,-99.99,,2014-01-28 03:10:00,
2014-01-27 21:43:00,-14.0,-24.0,-100.00,WSW,240,6.0,9.0,61,-99.99,,,-99.99,,2014-01-28 03:43:00,
2014-01-27 21:53:00,-14.0,-24.0,-100.00,WSW,240,6.0,9.0,61,-99.99,,,-99.99,,2014-01-28 03:53:00,
2014-01-27 22:03:00,-14.0,-24.0,-100.00,WSW,240,6.0,9.0,61,-99.99,,,-99.99,,2014-01-28 04:03:00,
2014-01-27 22:43:00,-16.0,-25.0,-100.00,SW,220,2.0,7.0,62,-99.99,,,-99.99,,2014-01-28 04:43:00,
2014-01-27 22:53:00,-16.0,-25.0,-100.00,SW,220,2.0,7.0,62,-99.99,,,-99.99,,2014-01-28 04:53:00,
2014-01-27 23:03:00,-16.0,-25.0,-100.00,SW,220,2.0,7.0,62,-99.99,,,-99.99,,2014-01-28 05:03:00,
2014-01-27 23:10:00,-19.0,-28.0,-100.00,SSW,205,2.0,4.0,65,-99.99,,,-99.99,,2014-01-28 05:10:00,
2014-01-27 23:42:00,-19.0,-28.0,-100.00,SSW,205,2.0,4.0,65,-99.99,,,-99.99,,2014-01-28 05:42:00,
2014-01-27 23:53:00,-19.0,-28.0,-100.00,SSW,205,2.0,4.0,65,-99.99,,,-99.99,,2014-01-28 05:53:00,